Weather History for KCOE - February, 2012

Change the Weather History Date:

Wednesday, February 22, 2012

  Actual Average Record
Temperature  
Mean Temperature 40 °F -  
Max Temperature 48 °F 38 °F 51 °F (2002)
Min Temperature 33 °F 23 °F 15 °F (2015)
Degree Days  
Heating Degree Days 24    
Moisture  
Dew Point 32 °F    
Average Humidity 69    
Maximum Humidity 81    
Minimum Humidity 43    
Precipitation  
Precipitation 0.00 in - - ()
Sea Level Pressure  
Sea Level Pressure 29.75 in    
Wind  
Wind Speed 16 mph (WSW)    
Max Wind Speed 32 mph    
Max Gust Speed 44 mph    
Visibility 10 miles    
Events      
Averages and records for this station are not official NWS values.
T = Trace of Precipitation, MM = Missing Value Source: NWS Daily Summary

Daily Weather History Graph

Daily Weather History Graph

Search for Another Location

Airport or City:

Trip Planner

Search our weather history database for the weather conditions in past years. The results will help you decide how hot, cold, wet, or windy it might be!

Date:

Astronomy

Feb. 22, 2012 Rise Set
Actual Time 6:41 AM PST 5:20 PM PST
Civil Twilight 6:10 AM PST 5:52 PM PST
Nautical Twilight 5:34 AM PST 6:27 PM PST
Astronomical Twilight 4:58 AM PST 7:03 PM PST
Moon 6:34 AM PST (2/22) 6:41 PM PST (2/22)
Length of Visible Light 11h 41m
Length of Day
10h 38m
New Moon, 1% of the Moon is Illuminated
Feb 22
New Moon
Feb 29
First Quarter
Mar 8
Full
Mar 14
Last Quarter
Mar 22
New

Hourly Weather History & Observations

Time (PST) Temp. Windchill Dew Point Humidity Pressure Visibility Wind Dir Wind Speed Gust Speed Precip Events Conditions
12:15 AM 41.0 °F 35.2 °F 35.6 °F 81% 29.85 in 10.0 mi SW 9.2 mph 21.9 mph N/A   Overcast
12:35 AM 42.8 °F 37.0 °F 35.6 °F 76% 29.83 in 10.0 mi SSW 10.4 mph 20.7 mph N/A   Overcast
12:55 AM 41.0 °F 35.8 °F 35.6 °F 81% 29.81 in 10.0 mi SW 8.1 mph - N/A   Overcast
1:15 AM 42.8 °F - 37.4 °F 81% 29.81 in 10.0 mi Calm Calm - N/A   Overcast
1:35 AM 42.8 °F - 35.6 °F 76% 29.80 in 10.0 mi Calm Calm - N/A   Mostly Cloudy
1:55 AM 42.8 °F 40.1 °F 37.4 °F 81% 29.79 in 10.0 mi South 4.6 mph - N/A   Mostly Cloudy
2:15 AM 42.8 °F 39.3 °F 35.6 °F 76% 29.77 in 10.0 mi SSW 5.8 mph - N/A   Overcast
2:35 AM 44.6 °F - 35.6 °F 71% 29.77 in 10.0 mi Calm Calm - N/A   Overcast
2:55 AM 42.8 °F 35.4 °F 35.6 °F 76% 29.75 in 10.0 mi WSW 15.0 mph - N/A   Overcast
3:15 AM 44.6 °F 36.6 °F 35.6 °F 71% 29.73 in 10.0 mi WSW 19.6 mph 28.8 mph N/A   Overcast
3:35 AM 42.8 °F 34.0 °F 37.4 °F 81% 29.73 in 10.0 mi WSW 20.7 mph 25.3 mph N/A   Overcast
3:55 AM 42.8 °F 34.5 °F 37.4 °F 81% 29.73 in 10.0 mi WSW 18.4 mph 27.6 mph N/A   Overcast
4:15 AM 42.8 °F 34.0 °F 37.4 °F 81% 29.71 in 10.0 mi WSW 20.7 mph 26.5 mph N/A   Overcast
4:35 AM 42.8 °F 33.5 °F 37.4 °F 81% 29.71 in 10.0 mi WSW 23.0 mph 31.1 mph N/A   Overcast
4:55 AM 44.6 °F 36.1 °F 37.4 °F 76% 29.70 in 10.0 mi WSW 21.9 mph 32.2 mph N/A   Overcast
5:15 AM 44.6 °F 35.7 °F 37.4 °F 76% 29.70 in 10.0 mi WSW 24.2 mph 33.4 mph N/A   Overcast
5:55 AM 44.6 °F 36.9 °F 37.4 °F 76% 29.71 in 10.0 mi WSW 18.4 mph 28.8 mph N/A   Overcast
6:15 AM 44.6 °F 36.4 °F 37.4 °F 76% 29.70 in 10.0 mi WSW 20.7 mph 25.3 mph N/A   Overcast
6:35 AM 44.6 °F 37.4 °F 37.4 °F 76% 29.70 in 10.0 mi WSW 16.1 mph - N/A   Overcast
6:55 AM 44.6 °F 36.9 °F 37.4 °F 76% 29.70 in 10.0 mi WSW 18.4 mph 24.2 mph N/A   Overcast
7:15 AM 44.6 °F 36.1 °F 37.4 °F 76% 29.69 in 10.0 mi WSW 21.9 mph 26.5 mph N/A   Overcast
7:35 AM 44.6 °F 35.7 °F 37.4 °F 76% 29.69 in 10.0 mi WSW 24.2 mph 31.1 mph N/A   Overcast
7:55 AM 44.6 °F 36.6 °F 37.4 °F 76% 29.68 in 10.0 mi WSW 19.6 mph 31.1 mph N/A   Overcast
8:15 AM 44.6 °F 35.9 °F 35.6 °F 71% 29.68 in 10.0 mi WSW 23.0 mph 29.9 mph N/A   Overcast
8:35 AM 44.6 °F 36.9 °F 37.4 °F 76% 29.68 in 10.0 mi WSW 18.4 mph 28.8 mph N/A   Overcast
8:55 AM 44.6 °F 36.1 °F 35.6 °F 71% 29.68 in 10.0 mi WSW 21.9 mph 34.5 mph N/A   Overcast
9:15 AM 44.6 °F 36.1 °F 35.6 °F 71% 29.68 in 10.0 mi WSW 21.9 mph 27.6 mph N/A   Overcast
9:35 AM 44.6 °F 35.7 °F 35.6 °F 71% 29.67 in 10.0 mi WSW 24.2 mph 28.8 mph N/A   Overcast
9:55 AM 44.6 °F 36.1 °F 35.6 °F 71% 29.68 in 10.0 mi WSW 21.9 mph 32.2 mph N/A   Overcast
10:15 AM 44.6 °F 35.1 °F 35.6 °F 71% 29.67 in 10.0 mi West 27.6 mph 34.5 mph N/A   Overcast
10:35 AM 44.6 °F 35.9 °F 35.6 °F 71% 29.67 in 10.0 mi West 23.0 mph 33.4 mph N/A   Overcast
10:55 AM 44.6 °F 35.3 °F 35.6 °F 71% 29.67 in 10.0 mi West 26.5 mph 36.8 mph N/A   Overcast
11:15 AM 46.4 °F 38.7 °F 37.4 °F 71% 29.67 in 10.0 mi West 20.7 mph 32.2 mph N/A   Overcast
11:35 AM 46.4 °F 37.5 °F 33.8 °F 62% 29.68 in 10.0 mi West 27.6 mph 34.5 mph N/A   Mostly Cloudy
11:55 AM 46.4 °F 37.9 °F 30.2 °F 53% 29.67 in 10.0 mi West 25.3 mph 38.0 mph N/A   Mostly Cloudy
12:15 PM 48.2 °F - 33.8 °F 58% 29.68 in 10.0 mi West 27.6 mph 34.5 mph N/A   Mostly Cloudy
12:35 PM 48.2 °F - 30.2 °F 50% 29.68 in 10.0 mi West 32.2 mph 43.7 mph N/A   Mostly Cloudy
12:55 PM 46.4 °F 37.9 °F 28.4 °F 50% 29.70 in 10.0 mi West 25.3 mph 42.6 mph N/A   Mostly Cloudy
1:15 PM 44.6 °F 35.7 °F 24.8 °F 46% 29.72 in 10.0 mi WNW 24.2 mph 33.4 mph N/A   Overcast
1:35 PM 44.6 °F 36.1 °F 24.8 °F 46% 29.73 in 10.0 mi WNW 21.9 mph 27.6 mph N/A   Overcast
1:55 PM 44.6 °F 35.1 °F 24.8 °F 46% 29.73 in 10.0 mi West 27.6 mph 36.8 mph N/A   Overcast
2:15 PM 46.4 °F 37.0 °F 24.8 °F 43% 29.73 in 10.0 mi WNW 31.1 mph 43.7 mph N/A   Scattered Clouds
2:35 PM 44.6 °F 34.4 °F 23.0 °F 43% 29.77 in 10.0 mi NNW 32.2 mph 36.8 mph N/A   Mostly Cloudy
2:55 PM 41.0 °F 30.7 °F 24.8 °F 53% 29.79 in 10.0 mi NNW 25.3 mph 40.3 mph N/A   Mostly Cloudy
3:15 PM 42.8 °F 35.8 °F 23.0 °F 46% 29.79 in 10.0 mi NNW 13.8 mph 29.9 mph N/A   Mostly Cloudy
3:35 PM 44.6 °F 36.4 °F 24.8 °F 46% 29.82 in 10.0 mi WNW 20.7 mph 27.6 mph N/A   Overcast
3:55 PM 37.4 °F 27.5 °F 26.6 °F 65% 29.85 in 7.0 mi NW 18.4 mph 26.5 mph N/A   Mostly Cloudy
4:15 PM 37.4 °F 27.8 °F 26.6 °F 65% 29.83 in 10.0 mi WNW 17.3 mph 32.2 mph N/A   Overcast
4:35 PM 37.4 °F 26.6 °F 26.6 °F 65% 29.84 in 10.0 mi West 21.9 mph 26.5 mph N/A   Partly Cloudy
4:55 PM 37.4 °F 27.8 °F 26.6 °F 65% 29.85 in 10.0 mi West 17.3 mph - N/A   Clear
5:15 PM 35.6 °F 26.6 °F 26.6 °F 70% 29.86 in 10.0 mi West 13.8 mph - N/A   Clear
5:35 PM 35.6 °F 26.6 °F 26.6 °F 70% 29.87 in 10.0 mi WSW 13.8 mph - N/A   Clear
5:55 PM 33.8 °F 24.8 °F 26.6 °F 75% 29.87 in 10.0 mi SW 12.7 mph - N/A   Clear
6:15 PM 33.8 °F 24.3 °F 26.6 °F 75% 29.87 in 10.0 mi WSW 13.8 mph - N/A   Clear
6:35 PM 33.8 °F 25.8 °F 26.6 °F 75% 29.88 in 10.0 mi WSW 10.4 mph - N/A   Clear
6:55 PM 33.8 °F 25.3 °F 26.6 °F 75% 29.89 in 10.0 mi WSW 11.5 mph - N/A   Clear
7:15 PM 35.6 °F 27.1 °F 26.6 °F 70% 29.90 in 10.0 mi WSW 12.7 mph - N/A   Clear
7:35 PM 35.6 °F 26.2 °F 26.6 °F 70% 29.91 in 10.0 mi WSW 15.0 mph 19.6 mph N/A   Clear
7:55 PM 35.6 °F 28.0 °F 26.6 °F 70% 29.94 in 10.0 mi West 10.4 mph - N/A   Scattered Clouds
8:15 PM 35.6 °F 29.9 °F 26.6 °F 70% 29.94 in 10.0 mi West 6.9 mph - N/A   Mostly Cloudy
8:35 PM 33.8 °F 27.7 °F 26.6 °F 75% 29.95 in 10.0 mi West 6.9 mph - N/A   Scattered Clouds
8:55 PM 33.8 °F 27.7 °F 24.8 °F 70% 29.95 in 10.0 mi West 6.9 mph - N/A   Partly Cloudy
9:15 PM 30.2 °F 22.6 °F 24.8 °F 80% 29.97 in 10.0 mi NW 8.1 mph - N/A   Clear
9:35 PM 28.4 °F - 21.2 °F 74% 29.97 in 10.0 mi Calm Calm - N/A   Clear
9:55 PM 28.4 °F 22.2 °F 23.0 °F 80% 29.97 in 10.0 mi SW 5.8 mph - N/A   Clear
10:15 PM 30.2 °F 22.6 °F 24.8 °F 80% 29.98 in 10.0 mi WSW 8.1 mph - N/A   Clear
10:35 PM 30.2 °F 22.6 °F 24.8 °F 80% 29.98 in 10.0 mi West 8.1 mph - N/A   Clear
10:55 PM 30.2 °F 21.9 °F 23.0 °F 75% 30.00 in 10.0 mi WNW 9.2 mph - N/A   Scattered Clouds
11:15 PM 30.2 °F 23.4 °F 23.0 °F 75% 30.01 in 10.0 mi West 6.9 mph - N/A   Mostly Cloudy
11:35 PM 30.2 °F 24.3 °F 24.8 °F 80% 30.01 in 10.0 mi West 5.8 mph - N/A   Mostly Cloudy
11:55 PM 30.2 °F 22.6 °F 24.8 °F 80% 30.02 in 10.0 mi WSW 8.1 mph - N/A   Mostly Cloudy